Regional Weather Roundup
Issued by NWS Lake Charles, LA

Home | Current Version | Previous Version | Text Only | Print | Product List | Glossary On
Versions: 1 2 3 4 5 6 7 8 9 10 11 12 13 14 15 16 17 18 19 20 21 22 23 24 25 26 27 28 29 30 31 32 33 34 35 36 37 38 39 40 41 42 43 44 45 46 47 48
000
ASUS44 KLCH 312210
RWRLCH
RWRLCH
REGIONAL WEATHER ROUNDUP
NATIONAL WEATHER SERVICE LAKE CHARLES LA
500 PM CDT FRI JUL 31 2015

Note: "fair" indicates few or no clouds below 12,000 feet with no
significant weather and/or obstructions to visibility.


ACROSS SOUTHEAST TEXAS

CITY           SKY/WX    TMP DP  RH WIND       PRES   REMARKS
BEAUMONT       MOSUNNY   98  63  31 NE13      29.91F HX 100
BEAUMONT CITY    N/A     94  64  36 NE13      29.93F
ORANGE         PTCLDY    92  57  30 N6        29.94F
JASPER         SUNNY     96  59  29 NE9       29.98F
$$

ACROSS CENTRAL LOUISIANA

CITY           SKY/WX    TMP DP  RH WIND       PRES   REMARKS
LEESVILLE      SUNNY     92  63  37 NE9       29.95F
FULLERTON        N/A     93  63  36 VRB5      29.94F
ALEXANDRIA INT SUNNY     94  59  31 N13       29.95S
ESLER FIELD    SUNNY     96  60  30 NE7       29.96
DERIDDER         N/A     93  62  34 N8        29.97F
OAKDALE        CLEAR     95  61  31 NE8       29.94F
OPELOUSAS        N/A     91  66  43 N12       29.94S
$$

ACROSS SOUTHWEST AND SOUTH CENTRAL LOUISIANA

CITY           SKY/WX    TMP DP  RH WIND       PRES   REMARKS
SULPHUR        PTCLDY    95  62  33 N9        29.93F
LAKE CHARLES   MOSUNNY   94  64  37 NE12      29.92F
CHENNAULT INT  NOT AVBL
CAMERON PHI    CLEAR     93  70  46 N13G22    29.94F
DEQUINCY         N/A     94  63  36 N8        29.94F
JENNINGS         N/A     92  63  37 N12       29.92F
LAFAYETTE      SUNNY     94  66  39 NE16      29.92F
NEW IBERIA     SUNNY     93  71  48 N15       29.92F HX 100
ABBEVILLE        N/A     92  69  46 N12       29.92F
PATTERSON      SUNNY     91  73  55 N10       29.91F HX 100
SALT POINT       N/A     93  73  52 MISG      29.88F HX 102
$$

SELECTED SITES ACROSS THE REGION

CITY           SKY/WX    TMP DP  RH WIND       PRES   REMARKS
HOUSTON BUSH   PTSUNNY   99  66  33 NE15G21   29.92F HX 103
HOUSTON HOBBY  MOSUNNY   98  69  38 N12G21    29.91F HX 104
GALVESTON      SUNNY     97  74  47 N16       29.91F HX 108
COLLEGE STAT   MOSUNNY   98  67  36 NE15G22   29.94F HX 102
CONROE         SUNNY     97  59  28 NE12G21   29.94F
HUNTSVILLE     SUNNY     97  61  30 VRB6G18   29.96F
LUFKIN         SUNNY     94  64  37 N8        29.97F
SHREVEPORT     MOSUNNY   94  57  28 E14       30.00F
MONROE         SUNNY     94  62  34 NE15G23   29.99F
NATCHEZ MS     SUNNY     90  64  43 N10       29.97S
BATON ROUGE    SUNNY     93  67  42 NE8       29.91F
N.O. INTL ARPT MOSUNNY   93  71  48 N10G21    29.89F HX 100
SLIDELL        MOSUNNY   93  77  59 N12       29.88F HX 107
$$

MARINE REPORTS

STATION/POSITION TIME  TEMP    WIND        PRES    VSBY  WAVE
                       AIR SEA DIR/SP/G                  HT/PER
                 (UTC) (F)     (DEG/KT/KT) (MB)    (MI)  (FT/S)
BUOY 30 S HIGH I 2150   87 89   90/  8/  8 1012.6F         1
SEA RIM ST PARK  2200   94      60/  8/ 11 1013.4F
PORT ARTHUR      2100      89   10/  2/ 10 1013.8F
SABINE PASS N    2100   91 89  360/ 13/ 16 1014.1F
TEXAS POINT      NOT AVBL
CALCASIEU PASS   2100   90 88   20/ 12/ 15 1013.0F
LK CHARLES BEACH 2100   92 89                N/A
MARSH ISLAND     2100   89      20/  9/ 11   N/A           0
FRESH WATER LOCK 2100   90 88  360/  9/ 14 1013.1F
AMERADA PASS     2100   90 88  340/  3/  7 1012.7F
$$


USA.gov is the U.S. government's official web portal to all federal, state and local government web resources and services.